Change the Weather History Date:

Wednesday, May 15, 2013

  Actual Average Record
Temperature  
Mean Temperature 74 °F 59 °F  
Max Temperature 86 °F 73 °F 101 °F (1931)
Min Temperature 62 °F 46 °F 30 °F (1983)
Cooling Degree Days 8    
Growing Degree Days 24 (Base 50)    
Moisture  
Dew Point 45 °F    
Average Humidity 39    
Maximum Humidity 63    
Minimum Humidity 26    
Precipitation  
Precipitation 0.00 in 0.09 in 0.60 in (2003)
Month to date precipitation 0.28 1.42  
Year to date precipitation 3.85 6.22  
Sea Level Pressure  
Sea Level Pressure 29.77 in    
Wind  
Wind Speed 13 mph (ENE)    
Max Wind Speed 28 mph    
Max Gust Speed 33 mph    
Visibility 10 miles    
Events      
T = Trace of Precipitation, MM = Missing Value Source: NWS Daily Summary

Daily Weather History Graph

Daily Weather History Graph

Search for Another Location

Airport or City:

Trip Planner

Search our weather history database for the weather conditions in past years. The results will help you decide how hot, cold, wet, or windy it might be!

Date:

Astronomy

May. 15, 2013 Rise Set
Actual Time 6:26 AM CDT 8:51 PM CDT
Civil Twilight 5:55 AM CDT 9:22 PM CDT
Nautical Twilight 5:17 AM CDT 10:00 PM CDT
Astronomical Twilight 4:35 AM CDT 10:43 PM CDT
Moon 11:03 AM CDT (5/15) 12:39 AM CDT (5/15)
Length of Visible Light 15h 26m
Length of Day
14h 25m
Waxing Crescent, 27% of the Moon is Illuminated
May 15
Waxing Crescent
May 17
First Quarter
May 24
Full
May 31
Last Quarter
Jun 8
New

Hourly Weather History & Observations

Time (CDT) Temp. Dew Point Humidity Pressure Visibility Wind Dir Wind Speed Gust Speed Precip Events Conditions
12:53 AM 71.1 °F 45.0 °F 39% 29.73 in 10.0 mi North 9.2 mph - N/A   Clear
1:53 AM 66.9 °F 46.9 °F 49% 29.75 in 10.0 mi NE 9.2 mph - N/A   Clear
2:53 AM 64.0 °F 46.9 °F 54% 29.76 in 10.0 mi North 6.9 mph - N/A   Clear
3:53 AM 64.0 °F 44.1 °F 48% 29.75 in 10.0 mi NNE 11.5 mph - N/A   Clear
4:53 AM 66.9 °F 41.0 °F 39% 29.73 in 10.0 mi NE 19.6 mph 24.2 mph N/A   Clear
5:53 AM 64.9 °F 39.9 °F 40% 29.74 in 10.0 mi ENE 13.8 mph - N/A   Clear
6:53 AM 63.0 °F 37.9 °F 40% 29.77 in 10.0 mi ENE 11.5 mph - N/A   Clear
7:53 AM 64.0 °F 37.9 °F 38% 29.80 in 10.0 mi ENE 10.4 mph - N/A   Clear
8:53 AM 66.9 °F 37.9 °F 34% 29.81 in 10.0 mi East 18.4 mph - N/A   Clear
9:53 AM 70.0 °F 41.0 °F 35% 29.81 in 10.0 mi ENE 17.3 mph - N/A   Clear
10:53 AM 73.9 °F 41.0 °F 30% 29.82 in 10.0 mi NE 27.6 mph 33.4 mph N/A   Clear
11:53 AM 78.1 °F 43.0 °F 29% 29.80 in 10.0 mi ENE 25.3 mph 33.4 mph N/A   Clear
12:53 PM 80.1 °F 44.1 °F 28% 29.80 in 10.0 mi ENE 20.7 mph 31.1 mph N/A   Clear
1:53 PM 81.0 °F 45.0 °F 28% 29.80 in 10.0 mi East 18.4 mph 25.3 mph N/A   Clear
2:53 PM 84.0 °F 46.0 °F 26% 29.79 in 10.0 mi ENE 16.1 mph - N/A   Clear
3:53 PM 84.9 °F 46.0 °F 26% 29.76 in 10.0 mi East 18.4 mph 24.2 mph N/A   Clear
4:53 PM 84.0 °F 48.0 °F 28% 29.74 in 10.0 mi ENE 13.8 mph 21.9 mph N/A   Clear
5:53 PM 84.9 °F 46.0 °F 26% 29.73 in 10.0 mi ESE 9.2 mph - N/A   Clear
6:53 PM 82.9 °F 50.0 °F 32% 29.73 in 10.0 mi East 12.7 mph - N/A   Clear
7:53 PM 81.0 °F 52.0 °F 36% 29.71 in 10.0 mi East 8.1 mph - N/A   Clear
8:53 PM 73.0 °F 52.0 °F 48% 29.75 in 10.0 mi NE 5.8 mph - N/A   Clear
9:53 PM 71.1 °F 53.1 °F 53% 29.76 in 10.0 mi ENE 5.8 mph - N/A   Clear
10:53 PM 64.9 °F 52.0 °F 63% 29.78 in 10.0 mi NNE 6.9 mph - N/A   Clear
11:53 PM 64.0 °F 50.0 °F 60% 29.78 in 10.0 mi ENE 5.8 mph - N/A   Clear